Find Starlink 38237

NORAD ID: 100373 Int'l Des: 2026-190 Owner: SPXS Country: US Constellation: starlink operational

Current View

Loading 3D Globe...

About Starlink 38237

Starlink 38237 (NORAD 100373) is a starlink constellation satellite launched Aug 19, 2026 by SPXS of US. with a mass of 575.00 kg.

Upcoming Passes

Passes for default location (London). Set your location on the main map for personalized predictions.

Altitude History

Loading altitude history...

Two-Line Element Set

1 A0373U 26190C 26262.91959128 -.00379469 00000-0 -36336-2 0 9996
2 A0373 97.2826 117.2369 0003026 61.1893 298.9671 15.67734922 6281
Epoch: Sep 19, 2026 • Age: 16 hours

Current Status

Altitude 396.7 km
Apogee / Perigee N/A
Velocity 7.67 km/s
Sub-Earth Point -80.64°S, 49.57°W
Launch Date Aug 19, 2026
Age 32 days
Type internet

Technical Details

Classification Payload
Mass 575.00 kg
Dry Mass 530.00 kg
Length 0.30 m
Span 29.00 m
Shape ? Box + pan
Manufacturer SPXS
Bus Type Starlink V2MO
Phase Status In Orbit
Owner/State SPXS/US

Most Searched